Date,TemperatureHighF,TemperatureAvgF,TemperatureLowF,DewpointHighF,DewpointAvgF,DewpointLowF,HumidityHigh,HumidityAvg,HumidityLow,PressureMaxIn,PressureMinIn,WindSpeedMaxMPH,WindSpeedAvgMPH,GustSpeedMaxMPH,PrecipitationSumIn
2012-12-3,59,57,50,59,56,50,99,96,89,29.98,29.79,2,1,0,0.27
2012-12-5,26,26,26,23,23,23,88,88,88,30.26,30.26,0,0,0,0.00
2012-12-6,38,31,24,30,26,22,94,82,67,30.25,29.92,2,0,7,0.01
2012-12-7,42,41,37,42,40,36,98,97,96,29.87,29.76,2,0,2,0.07
2012-12-8,41,37,33,41,36,30,98,95,90,30.06,29.71,4,0,4,0.24
2012-12-9,37,34,32,36,32,29,98,93,85,30.07,29.55,7,0,7,0.14
2012-12-10,39,36,31,39,33,26,99,90,80,29.76,29.50,5,0,5,0.14
2012-12-11,36,29,23,29,24,21,95,82,64,30.06,29.75,9,0,9,0.00
2012-12-12,44,31,22,30,25,21,95,80,52,30.27,30.05,5,0,5,0.00
2012-12-13,45,35,24,30,27,22,95,74,49,30.27,30.07,9,1,9,0.00
2012-12-14,49,35,25,35,29,24,96,80,53,30.14,30.06,4,0,4,0.00
2012-12-15,43,37,29,41,34,27,98,88,70,30.07,29.58,7,0,7,0.08
2012-12-16,50,46,41,49,45,39,99,95,88,29.59,29.46,5,0,5,0.01
2012-12-17,42,40,38,39,36,33,94,88,79,29.62,29.50,2,0,2,0.01
2012-12-18,44,37,32,34,32,28,95,84,58,29.67,29.52,6,0,6,0.02
2012-12-19,39,36,30,36,34,29,96,92,80,30.02,29.62,3,0,3,0.02
2012-12-20,45,39,33,45,37,31,98,94,85,29.92,29.04,12,1,12,0.87
2012-12-21,33,31,29,32,28,24,97,90,77,29.78,29.06,12,1,12,0.87
2012-12-22,35,30,25,26,24,22,91,80,66,29.94,29.78,10,0,10,0.06
2012-12-23,37,26,17,28,22,16,97,83,67,29.94,29.80,6,0,6,0.02
2012-12-24,33,27,21,28,24,18,94,88,80,29.92,29.71,4,0,4,0.01
2012-12-25,34,28,21,29,24,19,94,84,74,30.21,29.89,5,0,5,0.03
2012-12-26,29,28,25,27,25,23,96,89,79,30.17,29.74,6,0,6,0.03
2012-12-27,34,26,15,30,23,11,96,89,77,30.06,29.77,5,0,5,0.07
2012-12-28,30,21,12,27,19,9,96,90,85,30.09,29.84,2,0,2,0.01
2012-12-29,30,27,22,28,24,19,95,91,86,29.96,29.71,5,0,5,0.01
2012-12-30,28,23,15,26,20,12,97,90,84,30.21,29.96,6,0,6,0.00
2012-12-31,33,24,14,30,22,12,94,90,85,30.11,29.84,7,1,7,0.01
2013-1-1,28,22,13,22,16,9,92,80,64,30.06,29.92,5,0,5,0.01